Topeka, KS

2:31 PM CDT on June 25, 2017 (GMT -0500)
Billard Municipal

Weather History for KTOP - June, 2013

Change the Weather History Date:

Sunday, June 2, 2013

  Actual Average Record
Temperature  
Mean Temperature 62 °F 70 °F  
Max Temperature 69 °F 81 °F 98 °F (1934)
Min Temperature 54 °F 60 °F 36 °F (1888)
Degree Days  
Heating Degree Days 3 1  
Month to date heating degree days 3 2  
Since 1 June heating degree days 3 2  
Since 1 July heating degree days 4899 5015  
Cooling Degree Days 0 6  
Month to date cooling degree days 1 12  
Year to date cooling degree days 146 138  
Since 1 June cooling degree days 1 12  
Growing Degree Days 12 (Base 50)    
Moisture  
Dew Point 48 °F    
Average Humidity 61    
Maximum Humidity 77    
Minimum Humidity 45    
Precipitation  
Precipitation 0.00 in 0.17 in 2.69 in (1950)
Month to date precipitation 0.00 0.34  
Year to date precipitation 14.33 13.45  
Snow  
Snow 0.00 in 0.00 in T in (1954)
Month to date snowfall 0.0 0.0  
Year to date snowfall 24.2 11.3  
Since 1 July snowfall 29.6 17.8  
Snow Depth 0.00 in    
Sea Level Pressure  
Sea Level Pressure 30.07 in    
Wind  
Wind Speed 7 mph (NNW)    
Max Wind Speed 17 mph    
Max Gust Speed 20 mph    
Visibility 10 miles    
Events      
T = Trace of Precipitation, MM = Missing Value Source: NWS Daily Summary

Daily Weather History Graph

Daily Weather History Graph

Search for Another Location

Airport or City:

Trip Planner

Search our weather history database for the weather conditions in past years. The results will help you decide how hot, cold, wet, or windy it might be!

Date:

Astronomy

Jun. 02, 2013 Rise Set
Actual Time 5:58 AM CDT 8:43 PM CDT
Civil Twilight 5:26 AM CDT 9:15 PM CDT
Nautical Twilight 4:46 AM CDT 9:54 PM CDT
Astronomical Twilight 4:02 AM CDT 10:39 PM CDT
Moon 2:22 AM CDT (6/2) 3:17 PM CDT (6/2)
Length of Visible Light 15h 48m
Length of Day
14h 45m
Waning Crescent, 30% of the Moon is Illuminated
Jun 2
Waning Crescent
Jun 8
New
Jun 16
First Quarter
Jun 23
Full
Jun 29
Last Quarter

Hourly Weather History & Observations

Time (CDT) Temp. Dew Point Humidity Pressure Visibility Wind Dir Wind Speed Gust Speed Precip Events Conditions
12:53 AM 61.0 °F 50.0 °F 67% 30.01 in 10.0 mi NW 10.4 mph - N/A   Overcast
1:53 AM 60.1 °F 50.0 °F 69% 30.02 in 10.0 mi NW 9.2 mph - N/A   Overcast
2:50 AM 60.8 °F 50.0 °F 68% 30.04 in 10.0 mi WNW 8.1 mph - N/A   Overcast
2:53 AM 60.1 °F 50.0 °F 69% 30.03 in 10.0 mi NW 12.7 mph - N/A   Overcast
3:53 AM 57.0 °F 50.0 °F 77% 30.04 in 10.0 mi North 13.8 mph - N/A   Overcast
4:29 AM 57.0 °F 50.0 °F 77% 30.05 in 10.0 mi NNW 11.5 mph - N/A   Overcast
4:53 AM 57.0 °F 48.9 °F 74% 30.05 in 10.0 mi NNW 9.2 mph - N/A   Overcast
5:06 AM 57.0 °F 48.9 °F 74% 30.05 in 10.0 mi NNW 9.2 mph - N/A   Overcast
5:53 AM 55.9 °F 48.9 °F 77% 30.06 in 10.0 mi NNW 8.1 mph - N/A   Overcast
6:53 AM 55.9 °F 46.9 °F 72% 30.08 in 10.0 mi North 9.2 mph - N/A   Overcast
7:53 AM 57.0 °F 48.0 °F 72% 30.09 in 10.0 mi NNW 10.4 mph - N/A   Overcast
8:53 AM 57.0 °F 46.0 °F 67% 30.11 in 10.0 mi NNW 9.2 mph 19.6 mph N/A   Overcast
9:53 AM 57.0 °F 46.9 °F 69% 30.12 in 10.0 mi North 11.5 mph - N/A   Overcast
10:53 AM 57.9 °F 46.0 °F 65% 30.12 in 10.0 mi NNW 8.1 mph - N/A   Overcast
11:53 AM 60.1 °F 46.9 °F 62% 30.12 in 10.0 mi NNW 9.2 mph - N/A   Overcast
12:21 PM 61.0 °F 46.9 °F 60% 30.13 in 10.0 mi NNW 8.1 mph - N/A   Overcast
12:53 PM 61.0 °F 46.9 °F 60% 30.12 in 10.0 mi NNW 8.1 mph - N/A   Overcast
1:53 PM 63.0 °F 48.0 °F 58% 30.12 in 10.0 mi North 10.4 mph - N/A   Overcast
2:53 PM 66.9 °F 48.0 °F 51% 30.10 in 10.0 mi North 6.9 mph - N/A   Mostly Cloudy
3:53 PM 66.9 °F 48.0 °F 51% 30.09 in 10.0 mi North 10.4 mph - N/A   Mostly Cloudy
4:53 PM 68.0 °F 46.9 °F 47% 30.06 in 10.0 mi North 8.1 mph - N/A   Partly Cloudy
5:53 PM 68.0 °F 46.9 °F 47% 30.04 in 10.0 mi NNE 5.8 mph - N/A   Clear
6:53 PM 68.0 °F 48.0 °F 49% 30.03 in 10.0 mi NNW 4.6 mph - N/A   Clear
7:53 PM 66.0 °F 46.9 °F 50% 30.03 in 10.0 mi ENE 6.9 mph - N/A   Clear
8:53 PM 64.0 °F 48.0 °F 56% 30.03 in 10.0 mi Calm Calm - N/A   Clear
9:53 PM 57.9 °F 50.0 °F 75% 30.04 in 10.0 mi East 3.5 mph - N/A   Clear
10:53 PM 57.0 °F 50.0 °F 77% 30.05 in 10.0 mi Calm Calm - N/A   Clear
11:53 PM 55.9 °F 48.9 °F 77% 30.04 in 10.0 mi East 3.5 mph - N/A   Clear